Regional Weather Roundup
Issued by NWS

Home | Current Version | Previous Version | Text Only | Print | Product List | Glossary Off
Versions: 1 2 3 4 5 6 7 8 9 10 11 12 13 14 15 16 17 18 19 20 21 22 23 24 25 26 27 28 29 30 31 32 33 34 35 36 37 38 39 40 41 42 43 44 45 46 47 48 49 50

000
ASUS43 KLSX 030407
RWRMO

WEATHER SUMMARY FOR MISSOURI
NATIONAL WEATHER SERVICE SPRINGFIELD MO
1100 PM CDT WED SEP 02 2015

NOTE: "FAIR" INDICATES FEW OR NO CLOUDS BELOW 12,000 FEET WITH NO
       SIGNIFICANT WEATHER AND/OR OBSTRUCTIONS TO VISIBILITY.
       CURRENT SKY AND/OR WEATHER CONDITIONS ARE NOT AVAILABLE FOR
       CHILLICOTHE AND FARMINGTON.

MOZ001>031-035>038-043-044-053-054-030500-
...NORTHERN AND WESTERN MISSOURI...

CITY           SKY/WX    TMP DP  RH WIND       PRES   REMARKS
KANSAS CTY INT PTCLDY    75  69  81 S9        29.96S
KANSAS C DTWN  CLEAR     80  68  66 S8        29.95R
LEE`S SUMMIT   CLEAR     78  67  68 S8        29.98R
ST JOSEPH      PTCLDY    77  70  79 S9        29.93S
CHILLICOTHE      N/A     77  69  76 S6        29.97S
KIRKSVILLE     MOCLDY    77  69  76 S8        29.98S

$$
MOZ066>068-077>081-088>096-101>105-030500-
...SOUTHWEST MISSOURI...

CITY           SKY/WX    TMP DP  RH WIND       PRES   REMARKS
SPRINGFIELD    CLEAR     74  67  78 SE8       30.02S
JOPLIN         CLEAR     75  68  78 S7        30.00S

$$
MOZ032>034-039>042-045>050-055>058-069>072-030500-
...CENTRAL MISSOURI...

CITY           SKY/WX    TMP DP  RH WIND       PRES   REMARKS
COLUMBIA       CLEAR     73  67  81 S6        30.00S
JEFFERSON CITY CLEAR     75  66  73 CALM      29.98S
ROLLA          CLEAR     72  68  87 SE5       30.02S
SEDALIA        CLEAR     75  68  78 S5        30.00R
WHITEMAN AFB   PTCLDY    76  67  74 S5        29.98R
WARRENSBURG    CLEAR     73  66  78 SE3       29.98R
OSAGE BEACH    CLEAR     73  64  73 SE5       30.01S

$$
MOZ051-052-059>065-030500-
...EAST CENTRAL MISSOURI...

CITY           SKY/WX    TMP DP  RH WIND       PRES   REMARKS
ST LOUIS INTL  CLEAR     82  69  64 SW3       30.01S
SPIRIT OF STL  CLEAR     73  72  96 CALM      29.99S
ST CHARLES     CLEAR     74  71  91 CALM      29.99S

$$
MOZ072>076-082>087-097>100-106>115-030500-
...SOUTH CENTRAL AND SOUTHEAST MISSOURI...

CITY           SKY/WX    TMP DP  RH WIND       PRES   REMARKS
CAPE GIRARDEAU CLEAR     72  69  90 CALM      30.02R
FARMINGTON     CLEAR     72  72 100 SE10G26   30.06S
POPLAR BLUFF   CLEAR     72  70  93 CALM      30.01R
WEST PLAINS    CLEAR     76  68  76 S3        30.06S

$$



USA.gov is the U.S. government's official web portal to all federal, state and local government web resources and services.